OCEANSAT-2

Last updated on Mon Sep 07 2026 00:02:45 GMT+0000 (Coordinated Universal Time)

1 35931U 09051A 26249.62185550 -.00000180 00000+0 -97374-4 0 9995 2 35931 98.2410 228.3691 0016104 8.0145 352.1276 13.99669074890724
UTC large
Height (km)
Speed (km/s)
/
Latitude / Longitude
Inclination (degrees)
Orbital Period (minutes)
Azimuth
Elevation
Range (km)
Doppler Factor

Next 0 passes for location: London (51.5072 / 0.1276)

No passes found over London.
OCEANSAT-2